Wind_Speed
16 13 12 13 14 12 9 7 4 12 17 8 7 9 6 7 22 33 12 6 7 8 5 10 10 9 9 21 16 6 9 1 3 7 6 8 4 6 3 5 5 5 6 2
13 11 11 10 10 12 11 5 12 10 16 5 8 11 17 22 20 20 5 5 6 13 10 6 8 8 7 14 6 2 3 1 3 10 7 2 5 3 2 3 3 3 3 3
11 11 12 11 9 9 9 5 3 12 17 17 13 12 14 16 25 20 20 6 9 11 11 9 7 7 5 20 8 11 7 2 4 7 6 3 6 7 6 5 2 4 1 4
9 10 11 11 9 8 7 4 6 10 4 9 11 15 14 17 18 10 12 9 12 9 8 8 3 7 9 8 6 4 4 2 7 10 8 7 0 6 5 6 6 4 6 5
9 10 11 10 9 8 9 6 7 13 20 18 15 11 17 18 20 9 7 8 16 11 7 8 6 7 7 6 4 3 2 3 3 8 8 8 6 9 9 4 4 4 3 6
9 11 11 9 8 7 3 8 9 10 11 9 10 9 15 17 14 14 20 13 10 8 11 15 20 17 17 14 10 7 4 4 1 6 7 6 4 7 7 2 3 4 2 5
10 10 11 9 9 9 8 11 11 7 8 9 10 21 19 20 15 6 17 22 9 20 20 19 12 17 6 18 11 14 6 4 3 3 4 2 7 9 9 19 14 13 12 13
9 10 11 10 10 11 11 10 4 8 7 14 16 22 19 27 24 6 8 9 22 23 11 4 4 4 4 5 15 9 8 4 1 4 1 4 10 6 6 5 8 11 11 11
10 12 12 11 11 12 12 9 5 11 8 4 16 23 20 10 9 6 6 4 3 2 1 3 4 4 3 2 3 6 7 4 5 2 2 1 2 10 15 7 4 11 15 10
11 11 12 11 11 11 11 4 3 8 13 15 13 8 14 14 13 6 6 3 1 3 1 2 2 3 2 2 6 2 3 3 3 2 2 1 6 11 11 2 2 11 11 10
12 13 12 12 11 11 10 6 2 11 18 26 25 20 25 20 21 5 12 4 1 2 1 2 3 3 6 2 6 8 6 4 0 1 1 2 11 7 5 2 10 12 10 10
12 12 12 11 10 10 9 10 6 9 12 19 16 18 21 17 17 23 10 7 4 7 1 2 2 2 3 4 1 2 3 5 5 5 5 6 12 17 18 15 12 10 11 13
12 12 13 12 10 10 9 12 8 9 11 21 21 22 13 9 12 12 7 5 13 11 6 1 0 5 2 2 3 4 4 9 4 6 5 7 12 18 13 7 6 7 11 12
13 12 11 12 10 9 10 13 7 5 9 6 6 1 23 19 19 8 4 10 16 13 7 4 2 4 5 2 3 4 4 1 4 5 6 19 16 11 7 4 5 4 9 12
13 13 12 10 11 9 11 13 8 5 3 5 16 9 21 13 14 9 6 3 15 18 7 3 2 4 5 3 4 3 4 1 1 3 8 10 3 2 3 4 6 1 8 10
12 12 11 10 8 6 11 1 2 7 7 5 4 9 8 14 17 15 12 7 6 19 18 3 4 5 4 2 3 9 22 19 15 5 9 6 1 2 2 3 4 10 12 9
12 12 10 8 7 12 7 4 2 6 11 4 5 4 6 8 17 15 12 11 16 14 7 4 6 5 5 2 1 10 17 12 9 6 3 3 3 5 3 2 4 8 8 10
12 10 8 7 4 8 8 6 5 6 7 6 4 2 9 5 7 10 16 13 12 5 2 3 3 4 4 1 10 16 12 7 3 4 1 3 5 1 2 6 13 16 19 17
8 7 4 3 4 4 6 7 5 6 7 6 4 6 5 22 17 11 11 10 3 8 2 2 2 3 3 7 16 12 9 5 7 2 2 7 10 12 2 2 9 10 12 10
6 3 1 3 5 9 6 4 3 3 6 6 4 2 3 5 10 5 7 5 4 3 5 8 2 3 14 20 20 14 10 7 3 2 3 11 18 18 12 7 7 7 11 3
1 2 1 2 4 3 4 4 6 8 5 9 7 6 2 6 3 1 9 3 4 4 5 6 4 3 7 22 20 15 12 9 16 15 14 7 4 8 12 20 22 15 12 13
1 3 1 2 2 2 4 4 4 5 4 9 12 8 7 6 7 6 7 3 3 5 12 4 4 3 26 22 19 17 14 19 17 17 20 15 13 14 18 23 21 17 17 12
2 1 1 3 4 5 4 7 4 3 6 8 17 6 9 7 16 4 4 5 1 9 3 4 2 18 27 25 21 21 21 18 15 17 18 18 20 22 22 27 23 18 19 16
3 4 3 3 4 5 2 6 4 9 7 10 16 12 9 7 2 3 6 4 4 3 5 3 4 22 23 22 26 27 28 22 18 17 17 19 21 23 23 25 25 24 23 20
2 3 3 5 9 17 21 18 15 8 12 7 3 10 11 4 5 1 2 2 3 5 3 4 17 25 27 15 23 27 25 21 19 13 14 14 17 21 24 23 21 19 16 11
3 5 4 7 12 8 11 12 8 11 11 7 5 4 2 4 3 2 2 3 2 2 3 18 23 29 33 31 24 24 23 19 17 18 19 19 19 17 16 14 13 12 12 12
4 5 8 13 11 10 13 18 14 13 7 3 5 4 5 4 2 4 3 0 2 6 17 20 24 27 30 28 25 23 22 23 21 17 15 19 17 13 12 11 9 9 9 8
Wind_Direction
328 319 311 312 313 310 310 317 277 158 157 183 222 239 253 280 287 296 289 341 320 291 244 188 205 199 216 213 203 221 202 64 297 258 160 134 191 235 223 132 255 206 163 197
342 338 325 323 322 329 341 308 282 254 203 220 233 249 251 259 269 277 278 278 288 311 303 203 163 226 42 144 85 29 22 53 339 328 346 168 180 214 301 352 65 285 96 216
336 329 329 334 326 329 333 309 281 238 230 229 258 251 245 244 262 264 269 301 276 294 303 315 183 166 78 80 100 64 33 348 173 216 237 271 159 200 202 154 64 283 351 222
326 320 323 329 322 321 325 244 258 351 296 227 235 256 278 278 249 228 275 302 286 264 285 308 241 131 110 99 92 63 93 271 298 294 293 325 310 223 187 181 212 151 244 151
320 316 313 323 327 320 299 281 345 324 293 285 280 254 251 264 275 217 215 238 274 262 273 236 292 132 138 150 115 141 263 250 291 298 317 335 349 341 335 282 337 229 126 296
312 316 303 317 332 341 311 323 297 324 291 292 281 243 242 254 264 204 233 225 257 264 268 281 283 305 155 156 145 173 204 181 215 276 308 312 330 274 269 195 313 309 18 339
307 309 307 307 314 320 319 310 324 286 291 316 318 317 303 254 260 264 226 208 234 253 267 286 295 284 234 163 160 168 192 182 156 218 37 347 253 4 65 68 42 30 46 39
290 296 303 308 303 304 299 304 298 312 298 310 301 343 330 335 308 229 274 222 207 237 251 301 267 304 356 139 167 185 177 159 145 127 205 286 320 28 38 68 31 35 46 26
278 285 296 299 299 295 286 280 270 278 286 238 336 320 349 327 315 175 263 283 126 133 192 234 196 184 137 125 82 25 356 77 114 108 136 242 26 14 14 17 45 35 43 29
282 280 286 295 298 295 291 255 267 322 292 293 328 322 315 320 331 291 217 305 10 285 320 248 173 242 38 191 138 173 304 352 125 332 197 153 346 9 325 54 211 43 47 10
284 280 280 287 294 294 291 252 182 324 287 286 283 284 295 316 344 336 342 346 256 297 285 261 212 146 231 236 193 182 158 123 331 267 141 116 14 34 81 170 46 29 24 345
295 280 277 278 285 293 289 264 248 304 285 269 270 255 257 271 277 305 320 328 302 224 239 263 26 335 42 115 50 75 125 160 169 124 210 232 102 102 78 64 41 13 344 325
317 300 275 273 278 287 288 277 316 329 302 301 265 253 253 259 264 272 295 11 347 335 0 285 235 73 95 80 359 89 69 22 102 94 28 60 66 89 85 61 357 338 323 323
318 315 299 273 266 276 279 280 265 280 299 273 287 267 278 276 212 230 269 339 333 332 335 17 89 99 48 50 142 102 142 345 112 106 30 85 73 70 57 16 326 301 10 39
308 312 307 283 258 272 278 278 260 224 278 299 304 282 228 216 214 207 212 314 353 352 318 19 47 55 45 45 60 16 82 104 46 134 114 97 77 80 108 302 302 360 103 78
304 305 304 291 265 275 290 110 71 189 255 269 278 305 245 227 197 208 190 181 1 356 298 289 122 70 92 70 80 41 83 76 92 106 97 110 112 221 72 314 311 130 90 88
298 296 296 284 261 239 258 248 187 231 218 259 275 297 291 214 185 189 188 167 222 262 321 354 85 62 64 40 98 153 111 100 86 94 149 214 293 96 56 327 151 98 87 101
294 287 284 263 273 247 261 254 281 239 216 249 277 330 345 240 158 190 190 185 197 228 276 304 81 87 71 152 124 96 90 76 75 110 198 344 216 114 35 337 128 109 79 43
292 284 266 177 246 256 234 246 268 227 230 301 269 146 204 228 205 184 180 164 157 184 176 264 219 167 173 208 120 119 110 101 131 83 300 303 33 197 141 136 130 147 118 126
280 227 138 192 226 252 288 242 212 216 218 231 251 215 269 332 220 146 157 164 163 181 195 215 201 244 153 149 144 150 144 139 134 209 60 115 54 50 42 50 63 118 158 125
116 272 237 225 278 247 236 248 217 196 220 207 222 187 251 25 317 155 179 186 181 185 199 166 191 173 143 144 154 158 153 140 93 99 95 110 162 86 86 90 99 95 138 167
329 294 135 116 265 259 252 208 202 213 233 200 182 161 146 31 339 317 12 231 206 208 145 164 194 191 154 152 147 147 137 129 117 110 109 113 125 88 86 90 108 115 156 167
343 335 267 194 200 246 225 186 197 214 227 191 168 114 150 117 221 224 30 338 53 299 150 177 117 141 148 145 144 120 128 125 123 101 95 96 95 94 97 108 109 111 112 110
262 211 249 241 226 235 246 316 301 246 259 239 175 132 155 114 356 14 35 336 272 283 177 126 144 154 150 145 131 136 115 113 112 108 99 101 105 105 107 109 115 115 111 112
305 256 245 220 263 302 290 287 286 316 1 17 293 135 172 109 107 191 282 218 31 299 36 134 134 141 137 152 118 118 117 119 111 110 117 117 115 110 108 111 111 109 111 109
248 253 260 275 276 298 336 355 349 353 14 22 15 22 87 105 119 121 190 253 115 344 114 121 131 134 135 133 134 124 120 114 117 116 118 121 118 113 110 109 100 97 98 101
216 245 265 275 281 293 314 332 339 5 47 65 311 307 68 129 78 158 202 212 195 99 116 123 128 131 122 126 124 121 125 132 139 140 127 115 110 104 102 100 94 90 90 90
Height
1495 1493 1492 1491 1489 1488 1487 1485 1481 1472 1473 1477 1474 1473 1464 1455 1448 1443 1438 1437 1440 1440 1438 1444 1449 1449 1442 1434 1439 1450 1447 1459 1482 1468 1446 1445 1453 1466 1471 1508 1504 1501 1508 1515
1495 1493 1491 1490 1489 1487 1486 1485 1478 1467 1470 1475 1471 1465 1460 1456 1451 1444 1438 1439 1437 1434 1438 1445 1437 1439 1432 1432 1438 1453 1446 1467 1496 1486 1464 1449 1458 1456 1457 1467 1479 1495 1511 1502
1495 1493 1492 1490 1489 1488 1488 1487 1476 1465 1465 1465 1463 1461 1456 1454 1446 1443 1439 1437 1437 1439 1441 1430 1436 1437 1436 1437 1442 1444 1446 1462 1478 1502 1478 1459 1467 1460 1457 1466 1497 1494 1489 1481
1495 1494 1492 1490 1489 1488 1488 1485 1475 1471 1467 1460 1459 1458 1455 1451 1446 1439 1438 1443 1441 1441 1447 1441 1435 1433 1439 1441 1444 1447 1452 1474 1468 1464 1457 1453 1454 1456 1456 1466 1466 1484 1478 1473
1494 1493 1491 1490 1488 1487 1487 1485 1480 1473 1467 1462 1459 1453 1451 1449 1441 1438 1442 1447 1440 1436 1443 1439 1443 1434 1442 1447 1447 1451 1452 1475 1466 1473 1456 1455 1461 1455 1453 1452 1455 1459 1457 1463
1493 1492 1490 1489 1488 1487 1486 1481 1480 1477 1464 1458 1455 1444 1443 1439 1433 1431 1435 1437 1438 1437 1433 1429 1428 1428 1428 1434 1446 1454 1458 1469 1477 1487 1464 1461 1479 1463 1457 1450 1449 1455 1471 1466
1491 1490 1489 1488 1487 1486 1486 1486 1485 1480 1467 1462 1458 1453 1443 1434 1429 1431 1429 1431 1435 1433 1432 1430 1427 1426 1426 1430 1436 1441 1455 1464 1471 1487 1473 1500 1465 1450 1449 1461 1462 1460 1461 1460
1489 1489 1488 1487 1486 1485 1485 1484 1484 1481 1472 1464 1459 1454 1448 1437 1428 1427 1427 1425 1430 1431 1434 1437 1440 1439 1435 1431 1432 1438 1442 1456 1473 1490 1491 1473 1464 1456 1459 1464 1477 1465 1467 1464
1487 1487 1486 1485 1484 1483 1482 1481 1482 1481 1474 1464 1464 1459 1452 1446 1431 1426 1427 1428 1428 1429 1432 1439 1451 1461 1445 1450 1442 1436 1441 1447 1470 1476 1490 1500 1474 1459 1455 1453 1491 1469 1468 1468
1484 1484 1483 1482 1481 1480 1479 1478 1479 1477 1472 1463 1463 1464 1458 1449 1440 1430 1427 1429 1430 1430 1437 1446 1450 1453 1435 1457 1458 1456 1461 1463 1474 1480 1484 1473 1466 1461 1457 1483 1493 1472 1471 1471
1480 1480 1480 1480 1479 1478 1476 1476 1476 1477 1470 1463 1464 1462 1458 1450 1445 1447 1438 1433 1432 1435 1443 1443 1443 1446 1445 1446 1446 1455 1468 1475 1477 1474 1480 1492 1463 1462 1478 1477 1473 1473 1473 1471
1477 1477 1477 1477 1476 1475 1474 1473 1473 1472 1469 1458 1454 1454 1451 1454 1451 1452 1444 1443 1438 1434 1437 1437 1436 1442 1440 1446 1462 1440 1465 1458 1470 1470 1483 1463 1463 1466 1470 1472 1474 1474 1473 1471
1475 1474 1473 1473 1473 1472 1472 1471 1471 1469 1467 1456 1451 1447 1446 1447 1448 1450 1450 1441 1442 1437 1435 1433 1436 1445 1440 1455 1455 1446 1445 1447 1460 1464 1466 1463 1464 1466 1469 1472 1474 1474 1472 1470
1473 1471 1470 1469 1469 1470 1469 1469 1471 1471 1469 1460 1445 1445 1448 1442 1445 1445 1446 1445 1443 1439 1435 1432 1436 1444 1437 1448 1449 1453 1453 1453 1456 1462 1462 1464 1467 1468 1470 1472 1472 1472 1471 1469
1471 1469 1467 1466 1466 1467 1466 1466 1467 1469 1472 1463 1452 1445 1442 1439 1442 1443 1446 1448 1445 1439 1437 1436 1441 1439 1443 1443 1448 1455 1453 1456 1461 1470 1463 1465 1468 1469 1469 1470 1470 1469 1469 1469
1468 1467 1465 1464 1464 1463 1464 1464 1465 1466 1467 1466 1450 1435 1432 1434 1439 1442 1445 1448 1446 1443 1440 1441 1439 1442 1447 1454 1461 1457 1456 1456 1458 1462 1464 1465 1467 1468 1468 1470 1470 1467 1469 1470
1465 1464 1463 1462 1461 1461 1463 1463 1463 1463 1465 1463 1450 1439 1433 1433 1437 1441 1442 1445 1454 1449 1439 1439 1442 1445 1447 1454 1462 1456 1456 1459 1461 1461 1463 1465 1466 1468 1468 1469 1470 1471 1473 1475
1462 1461 1461 1460 1459 1459 1460 1459 1459 1459 1461 1460 1450 1445 1438 1433 1435 1439 1441 1443 1446 1446 1445 1443 1444 1448 1452 1459 1454 1454 1455 1458 1460 1461 1464 1466 1466 1466 1468 1468 1470 1473 1477 1480
1459 1459 1459 1458 1459 1458 1457 1457 1457 1458 1462 1456 1446 1446 1452 1439 1435 1435 1437 1439 1444 1443 1445 1445 1446 1448 1455 1451 1451 1455 1457 1460 1461 1463 1465 1466 1466 1464 1466 1468 1470 1472 1475 1482
1458 1458 1458 1457 1457 1456 1456 1457 1456 1456 1455 1453 1446 1440 1439 1436 1429 1429 1434 1434 1439 1445 1442 1444 1444 1446 1442 1446 1450 1455 1457 1459 1462 1463 1464 1464 1465 1468 1468 1468 1472 1471 1478 1480
1458 1458 1456 1456 1455 1455 1455 1452 1450 1447 1444 1439 1436 1437 1438 1440 1439 1429 1430 1433 1433 1441 1438 1443 1444 1446 1445 1446 1449 1451 1456 1459 1460 1462 1464 1465 1466 1473 1474 1474 1473 1472 1478 1481
1458 1456 1455 1456 1455 1453 1453 1445 1441 1439 1431 1424 1428 1434 1438 1442 1444 1439 1433 1430 1427 1433 1426 1436 1441 1437 1440 1445 1450 1454 1457 1456 1459 1462 1466 1469 1472 1473 1474 1475 1477 1480 1482 1483
1458 1457 1457 1455 1455 1451 1443 1436 1431 1428 1420 1416 1422 1430 1441 1448 1453 1448 1441 1442 1432 1424 1427 1432 1434 1435 1441 1445 1451 1454 1455 1457 1462 1465 1469 1472 1475 1478 1480 1481 1484 1485 1485 1488
1457 1455 1454 1451 1444 1441 1431 1430 1422 1417 1416 1415 1418 1423 1430 1442 1451 1450 1452 1456 1450 1433 1432 1437 1436 1440 1446 1448 1449 1450 1457 1462 1465 1468 1471 1475 1478 1480 1483 1484 1487 1488 1488 1490
1456 1456 1448 1444 1441 1437 1433 1429 1424 1420 1417 1414 1415 1418 1422 1434 1452 1460 1459 1450 1451 1435 1434 1433 1436 1442 1447 1454 1457 1456 1462 1466 1470 1473 1476 1477 1479 1480 1483 1487 1490 1491 1493 1495
1456 1451 1444 1442 1439 1434 1430 1427 1423 1420 1420 1419 1419 1421 1421 1436 1440 1446 1449 1445 1442 1441 1436 1436 1440 1446 1448 1455 1459 1462 1466 1469 1475 1478 1480 1481 1482 1484 1486 1489 1491 1493 1494 1496
1451 1446 1443 1441 1438 1436 1431 1428 1422 1424 1428 1430 1433 1419 1428 1438 1441 1443 1445 1445 1445 1443 1440 1442 1447 1448 1451 1458 1463 1466 1470 1474 1478 1481 1483 1485 1487 1489 1490 1491 1493 1494 1495 1496